Miscellaneous Local Product
Issued by NWS Hastings, NE

Home | Current Version | Previous Version | Graphics & Text | Print | Product List | Glossary On
Versions: 1 2 3 4 5 6 7 8 9 10 11 12 13 14 15 16 17 18 19 20 21 22 23 24 25 26 27 28 29 30 31 32 33 34 35 36 37 38 39 40 41 42 43 44 45 46 47 48 49 50
000
AXUS43 KGID 020702
MISGRI

GID CWA HOURLY WEATHER ROUNDUP
NATIONAL WEATHER SERVICE HASTINGS NE
200 AM CDT WED SEP 02 2015

NOTE: "FAIR" INDICATES FEW OR NO CLOUDS BELOW 12,000 FEET WITH NO
SIGNIFICANT WEATHER AND/OR OBSTRUCTIONS TO VISIBILITY.

...SOUTH CENTRAL NEBRASKA...

CITY           SKY/WX    TMP DP  RH WIND       PRES   REMARKS
GRAND ISLAND   CLEAR     75  64  68 S14       29.89F
HASTINGS       CLEAR     75  64  68 S7        29.90F
KEARNEY        CLEAR     72  61  68 S9        29.90S
ORD            CLEAR     64  62  93 CALM      29.86F
YORK           CLEAR     73  66  78 S9        29.90F
AURORA         CLEAR     74  66  77 S8        29.90S
LEXINGTON      CLEAR     70  64  81 CALM      29.90S
HOLDREGE       CLEAR     71  60  67 S8        29.91S
HEBRON         CLEAR     74  64  70 S9        29.91F

...NEBRASKA PANHANDLE...

CITY           SKY/WX    TMP DP  RH WIND       PRES   REMARKS
CHADRON        PTCLDY    55  46  71 SW3       29.89S
ALLIANCE       CLEAR     61  48  62 S10       29.93S
SCOTTSBLUFF    CLEAR     59  50  72 W3        29.95R
SIDNEY         CLEAR     68  42  38 SW12      30.00F

...WESTERN AND NORTH CENTRAL NEBRASKA...

CITY           SKY/WX    TMP DP  RH WIND       PRES   REMARKS
VALENTINE      CLEAR     69  61  75 SW7       29.85F
ONEILL         CLEAR     69  66  90 S6        29.87S
BROKEN BOW     CLEAR     64  61  90 CALM      29.90S
IMPERIAL       CLEAR     67  57  70 CALM      29.94F
NORTH PLATTE   CLEAR     65  60  84 E3        29.91S
MCCOOK         CLEAR     70  58  65 CALM      29.91S

...EASTERN NEBRASKA...

CITY           SKY/WX    TMP DP  RH WIND       PRES   REMARKS
NORFOLK        CLEAR     69  65  86 E5        29.87S
SO SIOUX CITY  CLEAR     74  66  76 S9        29.86F
TEKAMAH        CLEAR     73  68  84 S7        29.88F
COLUMBUS       CLEAR     73  63  68 S6        29.88F
ALBION         CLEAR     72  64  76 SE3       29.88F
OMAHA EPPLEY   PTCLDY    76  68  76 SE15      29.90F
OFFUTT AFB     CLEAR     74  68  82 SE12      29.90F
MILLARD        CLEAR     75  68  79 SE6       29.90F
LINCOLN        CLEAR     76  68  76 S10       29.90F
NEBRASKA CITY  LGT RAIN  75  65  70 S15       29.93F
BEATRICE       PTCLDY    75  68  77 S10       29.92F
FALLS CITY     LGT RAIN  73  69  87 S9        29.95S

...NORTHERN KANSAS...

CITY           SKY/WX    TMP DP  RH WIND       PRES   REMARKS
GOODLAND       PTCLDY    70  57  63 SW3       29.98F
HILL CITY      CLEAR     81  57  43 S15G24    29.92S
NORTON         SUNNY     75  54  46 S10G16    29.91S
PHILLIPSBURG   CLEAR     81  59  47 S5        29.91S
SMITH CENTER   CLEAR     72  61  68 SE7       29.92S
HAYS           CLEAR     79  55  44 S13       29.94S
RUSSELL        CLEAR     78  61  55 S16       29.92F
CONCORDIA      CLEAR     77  66  68 S18       29.92S
SALINA         PTCLDY    80  65  59 S13       29.93F
TOPEKA         PTCLDY    76  67  73 S8        29.97F



USA.gov is the U.S. government's official web portal to all federal, state and local government web resources and services.